Regional Weather Roundup
Issued by NWS

Home | Current Version | Previous Version | Text Only | Print | Product List | Glossary Off
Versions: 1 2 3 4 5 6 7 8 9 10 11 12 13 14 15 16 17 18 19 20 21 22 23 24 25 26 27 28 29 30 31 32 33 34 35 36 37 38 39 40 41 42 43 44 45 46 47 48 49 50

000
ASUS43 KMPX 062101
RWRMN
WEATHER ROUNDUP FOR MINNESOTA
NATIONAL WEATHER SERVICE TWIN CITIES/CHANHASSEN MN
400 PM CDT FRI MAY 06 2016


NOTE: "FAIR" INDICATES FEW OR NO CLOUDS BELOW 12,000 FEET WITH NO
SIGNIFICANT WEATHER AND/OR OBSTRUCTIONS TO VISIBILITY. N/A MEANS
CURRENT SKY AND/OR WEATHER CONDITIONS ARE NOT AVAILABLE.

MNZ060>063-068>070-062200-
   Twin Cities Metro

CITY           SKY/WX    TMP DP  RH WIND       PRES   REMARKS
TWIN CITIES    MOSUNNY   91  44  19 SW17G29   29.69F
ST PAUL        SUNNY     89  46  22 SW20G35   29.69F
CRYSTAL        SUNNY     91  47  21 SW15G28   29.68F
BLAINE         MOSUNNY   91  45  19 SW17G26   29.69F
EDEN PRAIRIE   SUNNY     92  48  22 W17G26    29.68F
SOUTH ST PAUL  SUNNY     92  42  17 SW15G24   29.70F
LAKE ELMO      FAIR      90  50  25 SW17G25   29.71F
$$
MNZ001>005-007-008-013>017-022>024-027-028-062200-
   Northwest Minnesota

CITY           SKY/WX    TMP DP  RH WIND       PRES   REMARKS
BEMIDJI        CLOUDY    75  47  36 NW21G30   29.79R
HALLOCK        CLOUDY    66  27  22 N22G29    29.93R
ROSEAU         CLOUDY    63  27  25 N22G31    29.88R
WARROAD        CLOUDY    61  41  48 NW17G28   29.88R
THIEF RVR FALL MOSUNNY   66  37  34 N22G32    29.90R
CROOKSTON      SUNNY     72  41  33 N28G37    29.88R
FOSSTON        SUNNY     73  39  29 NW29      29.84S
DETROIT LAKES  CLOUDY    73  45  35 N21G29    29.81S
MOORHEAD       CLOUDY    77  41  27 N32G39    29.83S
PARK RAPIDS    MOSUNNY   80  45  28 N20G32    29.74R
MAHNOMEN       FAIR      75  45  33 N29       29.80S
$$
MNZ006-009>011-018-025>026-062200-
   North Central Minnesota

CITY           SKY/WX    TMP DP  RH WIND       PRES   REMARKS
BAUDETTE       PTSUNNY   63  44  50 NW17      29.82R
FLAG ISLAND    CLOUDY    59  37  44 NW30G36   29.84R
INTL FALLS     LGT RAIN  70  48  45 NW17G31   29.73R
WASKISH        CLOUDY    70  48  46 NW13G18   29.80R
BIG FORK       MOSUNNY   79  45  29 N13G29    29.72R
LONGVILLE      PTSUNNY   84  46  26 NW14G26   29.71R
GRAND RAPIDS   CLOUDY    84  46  26 W20G26    29.68F
CRANE LAKE     SUNNY     77  43  29 NW14G22   29.67R
ORR            MOSUNNY   82  41  23 NW23G33   29.64R
COOK           MOSUNNY   86  48  26 W14G22    29.64F
WALKER         FAIR      79  48  33 NW20G29   29.74R
$$
MNZ012-019>021-037-062200-
   Northeast Minnesota

CITY           SKY/WX    TMP DP  RH WIND       PRES   REMARKS
DULUTH         TSTM      85  45  24 W23G30    29.64F
ELY            CLOUDY    88  39  18 W21G35    29.60F
HIBBING        CLOUDY    87  46  24 NW14G33   29.63F
EVELETH        CLOUDY    86  37  17 W22G30    29.65F
DULUTH HARBOR  MOSUNNY   90  43  19 SW17G28   29.58F
TWO HARBORS    TSTM      75  57  53 NW5G41    29.62R
SILVER BAY     CLOUDY    79  52  38 S15       29.60F
GRAND MARAIS     N/A     48  37  65 CALM      29.57F
G MARAIS ARPRT MOSUNNY   86  36  16 W12G25    29.60F
$$
MNZ029>031-032-039>041-046>048-054>057-064-062200-
   West Central Minnesota

CITY           SKY/WX    TMP DP  RH WIND       PRES   REMARKS
FERGUS FALLS   SUNNY     81  48  32 N17G28    29.73R
WHEATON        MOSUNNY   84  52  32 NW22G32   29.78R
MORRIS         SUNNY     93  46  20 NW16G26   29.71F
ALEXANDRIA     SUNNY     89  47  23 NW15G25   29.74F
ELBOW LAKE     FAIR      81  49  32 NW22G28   29.76R
WADENA         SUNNY     82  52  34 NW22G30   29.74R
GLENWOOD       SUNNY     90  50  25 W7        29.74F
APPLETON       SUNNY     91  41  17 N13G24    29.71F
ORTONVILLE     SUNNY     91  46  21 NW15G21   29.73F
MADISON        SUNNY     90  41  18 N15G23    29.73F
WILLMAR        FAIR      90  52  27 NW17      29.73F
$$
MNZ033>034-036-042>043-049>051-058-059-062200-
   Central Minnesota

CITY           SKY/WX    TMP DP  RH WIND       PRES   REMARKS
ST CLOUD       SUNNY     88  53  30 W10G18    29.69F
SAUK CENTRE      N/A     85  54  34 W9        29.72F
PAYNESVILLE    SUNNY     88  48  25 W13       29.73S
AITKIN         SUNNY     91  37  15 SW15      29.64F
PINE RIVER     MOSUNNY   86  52  30 W10G20    29.71F
BRAINERD       SUNNY     88  51  28 SW13      29.68F
STAPLES        SUNNY     90  45  20 NW18      29.71S
LONG PRAIRIE   FAIR      84  54  34 W7        29.73F
LITTLE FALLS   SUNNY     86  46  25 W7        29.71F
LITCHFIELD     SUNNY     88  52  29 NW13G18   29.70F
BUFFALO        SUNNY     90  49  24 W10       29.69F
MAPLE LAKE     SUNNY     90  54  30 W14G22    29.70F
HUTCHINSON     CLOUDY    91  55  28 W21       29.70F
$$
MNZ037-044-045-052-053-062200-
   East Central Minnesota

CITY           SKY/WX    TMP DP  RH WIND       PRES   REMARKS
PRINCETON      SUNNY     90  52  27 SW9       29.68F
MORA           SUNNY     86  50  28 W10       29.69F
CAMBRIDGE        N/A     91  63  38 W10G16    29.66F HX  92
RUSH CITY      MOSUNNY   88  49  26 SW9G18    29.68F
MOOSE LAKE     MOSUNNY   90  50  25 SW15G24   29.63F
HINCKLEY       FAIR      88  54  31 SW16      29.67F
CLOQUET        SUNNY     90  37  15 MISG      29.63F
MCGREGOR       MOSUNNY   88  50  27 SW10G23   29.65F
$$
MNZ071>073-080-081-089-090-097-098-062200-
   Southwest Minnesota

CITY           SKY/WX    TMP DP  RH WIND       PRES   REMARKS
MONTEVIDEO     SUNNY     93  50  22 NW8G17    29.74F HX  90
GRANITE FALLS  SUNNY     93  49  22 NW14G21   29.74F HX  90
CANBY          SUNNY     90  48  23 NW12G20   29.75F
MARSHALL       MOSUNNY   90  53  28 W20       29.74F
REDWOOD FALLS  MOSUNNY   91  48  22 NW15G26   29.71F
OLIVIA         SUNNY     81  45  28 NW16G25   29.72S
PIPESTONE      MOSUNNY  N/A N/A N/A W18G25    29.81F
WINDOM         SUNNY     88  43  20 SW25G31   29.78F
WORTHINGTON    MOSUNNY   87  48  25 SW24G31   29.81F
JACKSON        SUNNY     88  32  13 SW21G28   29.82F
TRACY          MOSUNNY   89  49  25 W10G17    29.77F
SLAYTON        MOSUNNY   86  47  26 SW28G36   29.82S
$$
MNZ065>067-074>077-082>085-091>093-062200-
   South Central Minnesota

CITY           SKY/WX    TMP DP  RH WIND       PRES   REMARKS
MANKATO        MOSUNNY   91  43  18 W29G40    29.74F
NEW ULM        MOSUNNY   90  46  22 SW23G32   29.71F
ST JAMES       MOSUNNY   84  39  20 SW24G35   29.76F
FAIRMONT       SUNNY     88  43  20 SW24G30   29.79F
GLENCOE        MOSUNNY   92  54  27 W18G28    29.68F HX  90
FARIBAULT      SUNNY     90  46  22 SW17G28   29.75F
OWATONNA       SUNNY     91  36  14 SW22G29   29.77F
WASECA         SUNNY     90  43  19 SW31      29.78F
ALBERT LEA     SUNNY     88  39  18 SW13G23   29.79F
$$
MNZ078>079-086>088-094>096-062200-
   Southeast Minnesota

CITY           SKY/WX    TMP DP  RH WIND       PRES   REMARKS
ROCHESTER      SUNNY     89  43  20 SW25G31   29.79F
RED WING       SUNNY     91  39  16 W20G26    29.71F
STANTON        SUNNY     90  43  19 SW24G32   29.72F
DODGE CENTER   SUNNY     88  39  18 SW24G32   29.79F
WINONA         MOSUNNY   90  41  18 W12G18    29.75F
AUSTIN         SUNNY     86  39  19 SW23      29.80F
PRESTON        MOSUNNY   86  40  19 W14G20    29.81F
$$
ABBREVIATIONS USED IN REMARKS
   TC - TEMPERATURES IN CELSIUS
  WCI - WIND CHILL INDEX
   HX - HEAT INDEX
  VSB - VISIBILITY
$$



USA.gov is the U.S. government's official web portal to all federal, state and local government web resources and services.